一网星座-0456星 (ONEWEB-0456 )

导读

ONEWEB-0456是英国OneWeb公司旗下低轨宽带互联网卫星,于2022年2月10日发射入轨。OneWeb正构建由600余颗低轨卫星组成的全球卫星互联网星座,旨在为全球用户提供高速低延迟的宽带连接服务,该卫星是星座组网的重要组成部分,助力OneWeb推进全球覆盖的卫星互联网服务部署,服务包括政府、军事及民用多领域的通信需求。

Basic Information
目录编号:
51646
目录名称:
ONEWEB-0456
国际标识:
2022-012AA
轨道中心:
EARTH
卫星名称:
一网星座-0456星
卫星全名:
一网星座-0456星 (ONEWEB-0456 )
卫星状态:
在轨 (已飞行1585 天)
发射日期:
2022-02-10 UTC
国别 :
英国 (GB)
星等 :
--
Orbit Information
数据来源 国际轨道数据 AOE轨道数据
星历时间 2026-06-14T11:16:15+0800
10小时前
查看轨道信息
2026-06-14T01:00:00+0800
20小时前
查看轨道信息
半长轴 7599.855km 7599.842km
偏心率 0.0001652 0.0001925
轨道倾角 87.885° 87.886°
近地点辐角 80.736° 76.121°
升交点赤经 36.861° 36.947°
平近点角 279.396° 66.346°
近地点 1220.462km 1220.242km
远地点 1222.974km 1223.168km
周期 109.892分钟 109.892分钟
每日圈数 13.103726 13.103761
Detailed Information
平衡模式:
三轴稳定
覆盖范围:
全球
运营商:
一网卫星公司
运营商所在国:
英国
制造商(研发单位):
一网卫星公司
制造商所在国:
英国
使用方式:
暂无
Satellite Introduction
OneWeb卫星网络由648颗重约125公斤的微型卫星组成,运行在1200公里的轨道上。 每颗卫星都能够提供至少每秒8千兆位的吞吐量,以使用其高吞吐量的Ku频段有效载荷为家庭和移动平台提供互联网接入。该卫星仍在工作。
2D Orbit Map
3D Orbit Map
Orbit Altitude Analysis Chart
Orbit Inclination Analysis Chart
Orbit Comprehensive Analysis Chart
View Comprehensive Chart